Total_Precipitation_Accumulation
2.58 2.84 2.83 2.69 2.65 2.74 2.65 2.49 2.27 2.28 2.23 2.06 1.92 1.97 2.04 2.09 2.18 2.35 2.46 2.40 2.40 2.65 3.12 3.41 3.46 3.33 3.23 3.20 3.12 2.99 2.84 2.75 2.73 2.62 2.51 2.37 2.22 2.09 2.06 2.10 2.09 1.94 1.88
3.16 3.32 3.28 3.09 2.90 2.98 2.92 2.76 2.64 2.72 2.67 2.62 2.43 2.36 2.27 2.35 2.35 2.42 2.63 2.77 2.63 2.59 3.01 3.56 3.84 3.83 3.69 3.59 3.35 3.11 3.02 2.95 2.91 2.80 2.70 2.50 2.28 2.23 2.19 2.18 2.20 2.05 1.94
3.70 3.76 3.74 3.44 3.19 3.21 3.42 3.38 3.24 3.18 2.90 2.81 2.71 2.66 2.57 2.45 2.46 2.54 2.74 3.10 3.03 3.04 3.18 3.28 3.43 3.54 3.67 3.85 3.87 3.64 3.41 3.21 3.08 2.98 2.89 2.80 2.60 2.39 2.32 2.30 2.35 2.29 2.12
3.77 3.87 3.86 3.70 3.55 3.49 3.76 3.91 3.81 3.70 3.50 3.40 3.22 2.97 2.77 2.71 2.68 2.81 2.93 3.14 3.39 3.36 3.46 3.30 3.12 3.21 3.50 3.74 3.91 3.97 3.81 3.50 3.27 3.21 3.16 3.09 2.88 2.70 2.54 2.42 2.42 2.40 2.29
4.12 4.18 4.07 4.05 4.08 4.16 4.16 3.90 4.00 3.83 3.85 3.73 3.28 3.07 2.78 2.72 2.83 2.82 2.94 3.03 3.23 3.22 3.22 3.12 3.07 3.09 3.29 3.66 3.77 3.98 4.00 3.88 3.69 3.51 3.46 3.39 3.20 2.97 2.77 2.61 2.47 2.40 2.34
4.53 4.77 4.72 4.65 4.63 4.59 4.39 4.30 4.30 4.07 3.89 3.74 3.26 3.02 2.80 2.66 2.62 2.70 2.72 2.76 2.82 2.76 2.71 2.79 3.10 2.99 3.08 3.27 3.34 3.56 3.85 4.00 3.85 3.65 3.54 3.54 3.39 3.06 2.74 2.61 2.55 2.47 2.42
5.30 5.36 5.15 4.99 4.86 4.82 4.72 4.65 4.47 4.25 3.99 3.87 3.78 3.39 2.86 2.59 2.54 2.45 2.45 2.51 2.57 2.62 2.60 2.65 2.67 2.68 2.68 2.83 2.86 3.04 3.34 3.71 3.81 3.78 3.74 3.62 3.48 3.26 2.94 2.70 2.64 2.60 2.53
5.47 5.38 5.44 5.36 5.17 5.02 4.83 4.62 4.52 4.32 3.98 3.90 3.88 3.75 3.26 2.88 2.48 2.12 2.12 2.16 2.27 2.47 2.37 2.30 2.38 2.46 2.46 2.58 2.57 2.79 3.01 3.24 3.54 3.69 3.60 3.44 3.31 3.27 3.24 3.08 2.91 2.80 2.72
5.64 5.44 5.33 5.13 4.98 4.86 4.73 4.52 4.32 4.18 3.97 3.83 3.79 3.88 3.57 3.14 2.68 2.31 2.00 1.95 1.99 2.12 2.10 2.11 2.10 2.19 2.31 2.44 2.43 2.56 2.69 2.73 3.05 3.35 3.46 3.36 3.22 3.12 3.09 3.09 3.06 3.00 2.94
5.24 4.99 4.88 4.79 4.62 4.28 4.07 3.90 3.82 3.69 3.56 3.38 3.43 3.38 3.22 3.03 3.02 2.87 2.56 2.33 2.21 2.14 2.13 2.05 2.01 2.11 2.15 2.29 2.44 2.45 2.41 2.41 2.65 2.91 3.14 3.23 3.15 3.17 3.17 3.15 3.12 3.10 3.10
4.63 4.35 4.23 4.10 3.87 3.48 3.13 3.00 3.10 3.17 3.18 3.08 3.07 3.12 3.11 2.95 2.88 2.87 2.80 2.65 2.51 2.29 2.17 2.20 2.20 2.17 2.13 2.12 2.19 2.28 2.24 2.10 2.21 2.37 2.67 2.94 3.05 3.17 3.22 3.15 3.15 3.13 3.15
4.06 3.69 3.36 3.11 2.87 2.70 2.51 2.47 2.53 2.60 2.81 2.91 3.03 3.04 3.03 2.93 2.83 2.87 2.78 2.71 2.67 2.49 2.26 2.13 2.14 2.11 2.06 2.05 1.98 2.13 1.94 1.84 1.84 1.92 2.09 2.34 2.59 2.74 2.75 2.88 3.05 3.15 3.25
3.27 2.96 2.67 2.56 2.43 2.31 2.23 2.24 2.25 2.22 2.33 2.53 2.65 2.74 2.81 2.80 2.77 2.84 2.95 2.90 2.72 2.54 2.41 2.22 2.06 1.99 1.96 1.99 1.97 2.00 1.81 1.70 1.64 1.62 1.63 1.73 1.86 2.08 2.24 2.43 2.61 2.80 2.93
2.51 2.26 2.06 1.93 1.90 1.95 1.89 1.97 1.99 2.01 2.03 2.11 2.20 2.42 2.53 2.54 2.56 2.55 2.60 2.71 2.76 2.60 2.36 2.19 2.06 1.92 1.82 1.73 1.75 1.73 1.52 1.52 1.39 1.35 1.37 1.42 1.47 1.56 1.69 1.79 1.90 2.00 2.09
1.86 1.73 1.66 1.63 1.60 1.63 1.71 1.73 1.71 1.74 1.83 1.86 1.90 2.04 2.10 2.12 2.16 2.22 2.31 2.40 2.58 2.61 2.39 2.10 1.96 1.82 1.62 1.48 1.53 1.35 1.31 1.34 1.20 1.12 1.09 1.12 1.16 1.24 1.31 1.37 1.47 1.51 1.54
1.53 1.52 1.47 1.40 1.35 1.36 1.39 1.46 1.47 1.49 1.55 1.63 1.68 1.71 1.76 1.76 1.82 1.89 2.05 2.18 2.26 2.34 2.27 1.93 1.68 1.55 1.46 1.28 1.34 1.19 1.22 1.26 1.07 1.04 1.00 1.01 1.06 1.13 1.17 1.21 1.24 1.31 1.33
1.29 1.27 1.18 1.10 1.07 1.10 1.18 1.28 1.32 1.36 1.41 1.47 1.54 1.54 1.57 1.57 1.63 1.65 1.67 1.76 1.92 2.03 2.04 1.78 1.59 1.51 1.45 1.34 1.30 1.27 1.23 1.17 1.04 1.05 0.99 0.99 1.02 1.03 1.03 1.06 1.06 1.10 1.20
1.15 1.11 1.02 0.94 0.93 0.95 1.02 1.08 1.12 1.15 1.27 1.30 1.31 1.33 1.33 1.37 1.42 1.42 1.46 1.49 1.58 1.72 1.80 1.79 1.67 1.59 1.50 1.39 1.37 1.37 1.14 0.97 0.96 0.97 0.89 0.85 0.86 0.87 0.89 0.90 0.90 0.88 0.91
1.14 1.05 0.95 0.91 0.89 0.89 0.90 0.95 1.00 0.99 1.03 1.10 1.13 1.19 1.22 1.26 1.23 1.17 1.22 1.31 1.35 1.42 1.62 1.65 1.57 1.51 1.40 1.30 1.40 1.30 1.19 1.26 0.96 0.89 0.80 0.75 0.75 0.72 0.73 0.75 0.77 0.76 0.73
1.04 0.97 0.92 0.86 0.84 0.81 0.83 0.85 0.83 0.87 0.91 0.96 0.98 1.02 1.04 1.08 1.10 1.13 1.15 1.27 1.33 1.45 1.54 1.56 1.52 1.48 1.39 1.30 1.41 1.42 1.38 1.35 1.12 0.82 0.79 0.69 0.71 0.70 0.69 0.69 0.68 0.67 0.64
1.02 0.98 0.91 0.84 0.74 0.69 0.68 0.71 0.71 0.74 0.83 0.86 0.89 0.87 0.85 0.92 1.01 1.01 0.99 1.09 1.23 1.40 1.42 1.44 1.44 1.46 1.40 1.42 1.40 1.35 1.36 1.38 1.27 1.05 1.05 0.88 0.84 0.88 0.88 0.81 0.74 0.70 0.63
0.96 0.92 0.84 0.76 0.68 0.58 0.63 0.63 0.62 0.68 0.78 0.83 0.81 0.79 0.76 0.75 0.81 0.88 0.89 0.96 1.10 1.21 1.29 1.37 1.39 1.42 1.43 1.51 1.53 1.50 1.48 1.50 1.49 1.22 1.22 1.13 1.01 1.10 1.03 0.92 0.82 0.69 0.62
0.96 0.90 0.81 0.77 0.76 0.69 0.55 0.47 0.51 0.62 0.77 0.78 0.77 0.81 0.74 0.69 0.79 0.82 0.85 0.84 0.87 0.90 1.02 1.23 1.38 1.44 1.54 1.69 1.77 1.70 1.62 1.59 1.59 1.38 1.42 1.36 1.22 1.27 1.02 0.87 0.89 0.76 0.66
0.91 0.90 0.87 0.90 0.91 0.74 0.54 0.40 0.45 0.62 0.73 0.68 0.67 0.75 0.82 0.85 0.79 0.79 0.81 0.85 0.87 0.86 0.89 0.97 1.21 1.30 1.32 1.49 1.69 1.72 1.68 1.61 1.60 1.57 1.64 1.60 1.27 1.20 1.05 1.22 1.18 0.99 0.81
0.84 0.83 0.86 0.93 0.96 0.82 0.62 0.48 0.50 0.63 0.71 0.69 0.68 0.66 0.68 0.75 0.73 0.77 0.85 0.99 1.02 1.02 0.82 0.86 0.99 1.06 1.10 1.24 1.37 1.54 1.71 1.80 1.77 1.66 1.63 1.65 1.45 1.29 1.30 1.50 1.41 1.31 1.06
0.76 0.71 0.77 0.88 0.89 0.81 0.62 0.48 0.49 0.54 0.65 0.76 0.83 0.82 0.77 0.73 0.70 0.76 0.91 1.06 1.12 1.11 1.11 1.24 1.36 1.35 1.33 1.37 1.32 1.49 1.76 1.88 1.84 1.80 1.65 1.67 1.67 1.59 1.65 1.66 1.62 1.49 1.39